Camanche, IA

4:55 AM CDT on August 27, 2016 (GMT -0500)
Clinton Municipal

Weather History for KCWI - May, 2013

Change the Weather History Date:

Sunday, May 19, 2013

  Actual Average Record
Temperature  
Mean Temperature 74 °F -  
Max Temperature 87 °F 75 °F 91 °F (1975)
Min Temperature 62 °F 53 °F 36 °F (1968)
Cooling Degree Days 10    
Growing Degree Days 24 (Base 50)    
Moisture  
Dew Point 61 °F    
Average Humidity 67    
Maximum Humidity 88    
Minimum Humidity 48    
Precipitation  
Precipitation 0.24 in - - ()
Sea Level Pressure  
Sea Level Pressure 29.83 in    
Wind  
Wind Speed 13 mph (SE)    
Max Wind Speed 28 mph    
Max Gust Speed 37 mph    
Visibility 8 miles    
Events Thunderstorm    
Averages and records for this station are not official NWS values.
T = Trace of Precipitation, MM = Missing Value Source: NWS Daily Summary

Daily Weather History Graph

Daily Weather History Graph

Search for Another Location

Airport or City:

Trip Planner

Search our weather history database for the weather conditions in past years. The results will help you decide how hot, cold, wet, or windy it might be!

Date:

Astronomy

May. 19, 2013 Rise Set
Actual Time 5:37 AM CDT 8:18 PM CDT
Civil Twilight 5:05 AM CDT 8:51 PM CDT
Nautical Twilight 4:24 AM CDT 9:31 PM CDT
Astronomical Twilight 3:38 AM CDT 10:18 PM CDT
Moon 2:18 PM CDT (5/19) 2:06 AM CDT (5/19)
Length of Visible Light 15h 46m
Length of Day
14h 41m
Waxing Gibbous, 65% of the Moon is Illuminated
May 19
Waxing Gibbous
May 24
Full
May 31
Last Quarter
Jun 8
New
Jun 16
First Quarter

Hourly Weather History & Observations

Time (CDT) Temp. Heat Index Dew Point Humidity Pressure Visibility Wind Dir Wind Speed Gust Speed Precip Events Conditions
12:15 AM 68.0 °F - 57.2 °F 68% 29.92 in 10.0 mi SE 9.2 mph - N/A   Clear
12:35 AM 68.0 °F - 57.2 °F 68% 29.92 in 10.0 mi ESE 9.2 mph - N/A   Clear
12:55 AM 66.2 °F - 57.2 °F 73% 29.91 in 10.0 mi SE 11.5 mph - N/A   Clear
1:15 AM 68.0 °F - 57.2 °F 68% 29.91 in 10.0 mi SE 12.7 mph - N/A   Clear
1:35 AM 66.2 °F - 57.2 °F 73% 29.91 in 10.0 mi SSE 10.4 mph - N/A   Clear
1:55 AM 66.2 °F - 57.2 °F 73% 29.90 in 10.0 mi SE 13.8 mph - N/A   Clear
2:15 AM 66.2 °F - 57.2 °F 73% 29.92 in 10.0 mi SE 10.4 mph - N/A   Clear
2:35 AM 66.2 °F - 57.2 °F 73% 29.91 in 10.0 mi SSE 10.4 mph - N/A   Clear
2:55 AM 66.2 °F - 57.2 °F 73% 29.92 in 10.0 mi SSE 8.1 mph - N/A   Clear
3:15 AM 64.4 °F - 57.2 °F 77% 29.92 in 8.0 mi South 5.8 mph - N/A   Clear
3:35 AM 64.4 °F - 57.2 °F 77% 29.92 in 8.0 mi South 6.9 mph - N/A   Clear
3:55 AM 64.4 °F - 57.2 °F 77% 29.92 in 8.0 mi South 8.1 mph - N/A   Clear
4:15 AM 64.4 °F - 57.2 °F 77% 29.93 in 8.0 mi SSE 8.1 mph - N/A   Clear
4:35 AM 62.6 °F - 57.2 °F 82% 29.92 in 7.0 mi SE 8.1 mph - N/A   Clear
4:55 AM 62.6 °F - 57.2 °F 82% 29.91 in 6.0 mi SE 9.2 mph - N/A   Clear
5:15 AM 64.4 °F - 59.0 °F 83% 29.91 in 7.0 mi SE 11.5 mph - N/A   Clear
5:35 AM 64.4 °F - 59.0 °F 83% 29.90 in 6.0 mi ESE 13.8 mph - N/A   Clear
5:55 AM 64.4 °F - 59.0 °F 83% 29.90 in 5.0 mi ESE 10.4 mph - N/A   Clear
6:15 AM 64.4 °F - 59.0 °F 83% 29.90 in 5.0 mi SE 13.8 mph - N/A   Clear
6:35 AM 66.2 °F - 59.0 °F 78% 29.90 in 5.0 mi ESE 10.4 mph - N/A   Clear
7:15 AM 68.0 °F - 60.8 °F 78% 29.92 in 5.0 mi SSE 11.5 mph 16.1 mph N/A   Clear
7:35 AM 68.0 °F - 60.8 °F 78% 29.93 in 6.0 mi SE 11.5 mph - N/A   Mostly Cloudy
7:55 AM 66.2 °F - 60.8 °F 83% 29.97 in 4.0 mi WNW 9.2 mph - N/A Thunderstorm Mostly Cloudy
8:15 AM 66.2 °F - 60.8 °F 83% 29.94 in 5.0 mi NNE 12.7 mph - 0.01 in Thunderstorm Thunderstorm
8:35 AM 64.4 °F - 60.8 °F 88% 29.91 in 3.0 mi ENE 11.5 mph - 0.05 in Thunderstorm Thunderstorm
8:55 AM 66.2 °F - 60.8 °F 83% 29.89 in 3.0 mi East 13.8 mph - 0.05 in   Partly Cloudy
9:15 AM 66.2 °F - 60.8 °F 83% 29.88 in 3.0 mi ESE 15.0 mph - N/A   Clear
9:55 AM 69.8 °F - 62.6 °F 78% 29.87 in 4.0 mi ESE 17.3 mph - N/A   Clear
10:15 AM 71.6 °F - 62.6 °F 73% 29.88 in 5.0 mi ESE 16.1 mph - N/A   Clear
10:35 AM 75.2 °F - 64.4 °F 69% 29.87 in 9.0 mi SE 15.0 mph - N/A   Clear
10:55 AM 75.2 °F - 64.4 °F 69% 29.87 in 10.0 mi SE 18.4 mph - N/A   Clear
11:15 AM 78.8 °F - 64.4 °F 61% 29.87 in 10.0 mi SSE 19.6 mph 25.3 mph N/A   Clear
11:35 AM 80.6 °F 82.3 °F 64.4 °F 58% 29.87 in 10.0 mi SSE 20.7 mph 26.5 mph N/A   Clear
11:55 AM 80.6 °F 82.3 °F 64.4 °F 58% 29.86 in 10.0 mi SSE 20.7 mph 29.9 mph N/A   Clear
12:15 PM 82.4 °F 83.9 °F 64.4 °F 54% 29.87 in 10.0 mi SSE 21.9 mph 27.6 mph N/A   Clear
12:35 PM 82.4 °F 83.9 °F 64.4 °F 54% 29.87 in 10.0 mi South 23.0 mph 27.6 mph N/A Thunderstorm Scattered Clouds
12:55 PM 80.6 °F 82.3 °F 64.4 °F 58% 29.87 in 10.0 mi South 21.9 mph 26.5 mph N/A Thunderstorm Thunderstorm
1:15 PM 80.6 °F 82.3 °F 64.4 °F 58% 29.86 in 10.0 mi South 17.3 mph 24.2 mph N/A Thunderstorm Partly Cloudy
1:35 PM 78.8 °F - 64.4 °F 61% 29.89 in 8.0 mi SSW 10.4 mph - 0.12 in Thunderstorm Thunderstorm
2:15 PM 75.2 °F - 68.0 °F 78% 29.79 in 6.0 mi East 15.0 mph - N/A   Clear
2:35 PM 80.6 °F 84.6 °F 71.6 °F 74% 29.76 in 7.0 mi ESE 18.4 mph - N/A   Clear
2:55 PM 82.4 °F 86.3 °F 69.8 °F 66% 29.75 in 10.0 mi ESE 21.9 mph 26.5 mph N/A   Clear
3:15 PM 84.2 °F 87.3 °F 68.0 °F 58% 29.75 in 10.0 mi SE 21.9 mph 29.9 mph N/A   Clear
3:35 PM 86.0 °F 90.4 °F 69.8 °F 58% 29.75 in 10.0 mi SSE 20.7 mph 25.3 mph N/A   Clear
3:55 PM 86.0 °F 88.2 °F 66.2 °F 51% 29.76 in 10.0 mi SSE 17.3 mph - N/A   Partly Cloudy
4:15 PM 87.8 °F 90.4 °F 66.2 °F 49% 29.75 in 10.0 mi SSE 16.1 mph 21.9 mph N/A   Partly Cloudy
4:35 PM 87.8 °F 90.4 °F 66.2 °F 49% 29.75 in 10.0 mi SSE 19.6 mph 25.3 mph N/A   Partly Cloudy
4:55 PM 86.0 °F 87.3 °F 64.4 °F 48% 29.74 in 10.0 mi South 18.4 mph 27.6 mph N/A   Partly Cloudy
5:15 PM 86.0 °F 88.2 °F 66.2 °F 51% 29.73 in 10.0 mi South 15.0 mph - N/A   Clear
5:35 PM 86.0 °F 88.2 °F 66.2 °F 51% 29.72 in 10.0 mi South 16.1 mph - N/A   Clear
5:55 PM 86.0 °F 88.2 °F 66.2 °F 51% 29.72 in 10.0 mi SSE 12.7 mph - N/A   Partly Cloudy
6:15 PM 84.2 °F 86.6 °F 66.2 °F 55% 29.72 in 10.0 mi SSE 11.5 mph - N/A   Clear
6:35 PM 84.2 °F 85.6 °F 64.4 °F 51% 29.72 in 10.0 mi South 15.0 mph - N/A   Clear
6:55 PM 82.4 °F 84.6 °F 66.2 °F 58% 29.72 in 10.0 mi South 20.7 mph 25.3 mph N/A   Scattered Clouds
7:15 PM 82.4 °F 83.9 °F 64.4 °F 54% 29.74 in 8.0 mi SSW 27.6 mph 36.8 mph N/A Thunderstorm Thunderstorm
7:35 PM 69.8 °F - 57.2 °F 64% 29.75 in 8.0 mi South 19.6 mph 36.8 mph 0.05 in Thunderstorm Thunderstorm
7:55 PM 68.0 °F - 57.2 °F 68% 29.75 in 10.0 mi SSE 23.0 mph 36.8 mph 0.06 in Thunderstorm Thunderstorm
8:15 PM 69.8 °F - 55.4 °F 60% 29.77 in 10.0 mi South 19.6 mph 28.8 mph N/A Thunderstorm Overcast
8:35 PM 68.0 °F - 57.2 °F 68% 29.68 in 10.0 mi NE 25.3 mph 33.4 mph 0.01 in Thunderstorm Thunderstorm
8:55 PM 71.6 °F - 55.4 °F 57% 29.66 in 10.0 mi NE 9.2 mph - 0.01 in   Scattered Clouds
9:15 PM 71.6 °F - 55.4 °F 57% 29.71 in 10.0 mi SW 13.8 mph 23.0 mph N/A   Clear
9:35 PM 71.6 °F - 55.4 °F 57% 29.70 in 10.0 mi SSE 12.7 mph - N/A   Clear
9:55 PM 71.6 °F - 55.4 °F 57% 29.66 in 10.0 mi ESE 17.3 mph - N/A   Clear
10:15 PM 69.8 °F - 55.4 °F 60% 29.68 in 10.0 mi ESE 13.8 mph - N/A   Clear
10:35 PM 71.6 °F - 55.4 °F 57% 29.70 in 10.0 mi ESE 16.1 mph - N/A   Clear
10:55 PM 69.8 °F - 55.4 °F 60% 29.73 in 10.0 mi SE 12.7 mph - N/A   Clear
11:15 PM 69.8 °F - 57.2 °F 64% 29.73 in 10.0 mi SSE 13.8 mph - N/A   Clear
11:35 PM 69.8 °F - 57.2 °F 64% 29.71 in 10.0 mi SE 18.4 mph - N/A Thunderstorm Partly Cloudy
11:55 PM 71.6 °F - 59.0 °F 64% 29.71 in 10.0 mi SSE 19.6 mph - N/A Thunderstorm Clear